QPF
0.05 0.04 0.05 0.07 0.04 0.01 0.00 0.01 0.02 0.02 0.02 0.03 0.03 0.02 0.02 0.01 0.01 0.01 0.01 0.01 0.01 0.01 0.02 0.02 0.03 0.04 0.04 0.05 0.06 0.09 0.10 0.09 0.12 0.12 0.09 0.08 0.09 0.08 0.07 0.06 0.05 0.05 0.04
0.02 0.03 0.06 0.04 0.04 0.03 0.02 0.02 0.02 0.03 0.03 0.03 0.02 0.02 0.01 0.01 0.00 0.00 0.00 0.01 0.01 0.01 0.01 0.02 0.01 0.02 0.02 0.03 0.04 0.07 0.07 0.05 0.09 0.09 0.09 0.07 0.07 0.06 0.04 0.07 0.05 0.04 0.05
0.04 0.07 0.08 0.06 0.04 0.06 0.06 0.04 0.04 0.04 0.04 0.02 0.01 0.01 0.00 0.00 0.00 0.00 0.00 0.00 0.00 0.00 0.00 0.00 0.01 0.01 0.01 0.02 0.03 0.04 0.05 0.05 0.06 0.08 0.10 0.09 0.07 0.08 0.07 0.06 0.06 0.07 0.07
0.16 0.16 0.13 0.06 0.04 0.07 0.05 0.03 0.03 0.03 0.02 0.02 0.02 0.02 0.01 0.00 0.00 0.00 0.00 0.00 0.00 0.00 0.00 0.00 0.00 0.00 0.01 0.01 0.01 0.02 0.03 0.04 0.05 0.06 0.09 0.08 0.09 0.10 0.08 0.06 0.07 0.10 0.11
0.15 0.15 0.10 0.06 0.04 0.02 0.03 0.03 0.03 0.03 0.03 0.03 0.04 0.03 0.02 0.01 0.01 0.01 0.01 0.01 0.00 0.00 0.00 0.00 0.00 0.00 0.01 0.01 0.01 0.02 0.03 0.04 0.04 0.05 0.06 0.08 0.09 0.09 0.09 0.08 0.08 0.09 0.08
0.10 0.12 0.11 0.07 0.04 0.03 0.03 0.04 0.07 0.07 0.04 0.04 0.05 0.05 0.05 0.04 0.03 0.03 0.03 0.02 0.01 0.00 0.00 0.00 0.00 0.01 0.01 0.01 0.02 0.02 0.03 0.04 0.04 0.06 0.06 0.07 0.07 0.06 0.08 0.08 0.10 0.11 0.10
0.09 0.12 0.12 0.10 0.07 0.05 0.06 0.08 0.12 0.14 0.10 0.07 0.07 0.07 0.08 0.07 0.06 0.05 0.06 0.04 0.02 0.01 0.01 0.01 0.01 0.01 0.01 0.02 0.02 0.03 0.02 0.03 0.04 0.05 0.06 0.07 0.07 0.09 0.11 0.10 0.10 0.12 0.13
0.10 0.12 0.11 0.09 0.10 0.11 0.12 0.11 0.10 0.12 0.10 0.08 0.09 0.08 0.08 0.07 0.06 0.09 0.08 0.07 0.05 0.02 0.02 0.03 0.03 0.02 0.02 0.02 0.03 0.03 0.03 0.04 0.05 0.04 0.06 0.06 0.07 0.10 0.11 0.12 0.13 0.13 0.13
0.05 0.07 0.06 0.05 0.07 0.08 0.08 0.06 0.05 0.05 0.06 0.06 0.07 0.07 0.08 0.08 0.08 0.09 0.09 0.07 0.06 0.04 0.04 0.04 0.05 0.05 0.04 0.03 0.03 0.03 0.03 0.04 0.04 0.04 0.05 0.06 0.07 0.09 0.11 0.13 0.14 0.14 0.13
0.02 0.02 0.03 0.03 0.04 0.05 0.05 0.04 0.04 0.03 0.03 0.04 0.04 0.04 0.04 0.05 0.07 0.08 0.09 0.09 0.08 0.08 0.07 0.06 0.06 0.06 0.05 0.04 0.04 0.03 0.03 0.03 0.03 0.04 0.05 0.06 0.07 0.09 0.11 0.12 0.14 0.16 0.16
0.00 0.01 0.01 0.01 0.01 0.02 0.02 0.02 0.03 0.04 0.04 0.06 0.06 0.03 0.03 0.02 0.03 0.05 0.07 0.08 0.08 0.08 0.07 0.07 0.07 0.06 0.05 0.04 0.04 0.03 0.03 0.03 0.03 0.03 0.03 0.04 0.06 0.08 0.09 0.11 0.13 0.16 0.18
0.00 0.00 0.00 0.00 0.00 0.00 0.01 0.01 0.02 0.03 0.04 0.06 0.08 0.08 0.05 0.03 0.02 0.03 0.05 0.06 0.07 0.07 0.07 0.07 0.07 0.06 0.05 0.05 0.04 0.03 0.03 0.03 0.03 0.04 0.04 0.03 0.05 0.07 0.08 0.10 0.11 0.14 0.16
0.00 0.00 0.00 0.00 0.00 0.00 0.00 0.00 0.01 0.01 0.01 0.02 0.02 0.04 0.05 0.04 0.03 0.03 0.04 0.05 0.06 0.06 0.07 0.08 0.07 0.07 0.06 0.06 0.05 0.04 0.04 0.04 0.04 0.04 0.04 0.04 0.06 0.07 0.08 0.10 0.11 0.13 0.13
0.00 0.00 0.00 0.00 0.00 0.00 0.00 0.00 0.00 0.00 0.00 0.00 0.00 0.01 0.02 0.02 0.02 0.03 0.04 0.04 0.05 0.05 0.06 0.07 0.08 0.07 0.07 0.07 0.06 0.05 0.05 0.04 0.04 0.04 0.03 0.04 0.05 0.07 0.08 0.10 0.11 0.11 0.11
0.00 0.00 0.00 0.00 0.00 0.00 0.00 0.00 0.00 0.00 0.00 0.00 0.00 0.00 0.00 0.01 0.01 0.02 0.03 0.04 0.04 0.05 0.06 0.07 0.08 0.08 0.07 0.07 0.07 0.06 0.05 0.04 0.04 0.03 0.03 0.03 0.04 0.06 0.08 0.08 0.09 0.10 0.09
0.00 0.00 0.00 0.00 0.00 0.00 0.00 0.00 0.00 0.00 0.00 0.00 0.00 0.00 0.00 0.00 0.01 0.01 0.02 0.03 0.04 0.05 0.06 0.07 0.09 0.10 0.08 0.07 0.06 0.06 0.05 0.04 0.04 0.03 0.03 0.03 0.03 0.04 0.05 0.07 0.10 0.11 0.10
0.00 0.00 0.00 0.00 0.00 0.00 0.00 0.00 0.00 0.00 0.00 0.00 0.00 0.00 0.00 0.00 0.00 0.01 0.02 0.04 0.05 0.06 0.07 0.07 0.09 0.10 0.11 0.08 0.05 0.04 0.05 0.05 0.04 0.03 0.03 0.03 0.03 0.04 0.04 0.05 0.07 0.08 0.09
0.00 0.00 0.00 0.00 0.00 0.00 0.00 0.00 0.00 0.00 0.00 0.00 0.00 0.00 0.00 0.00 0.01 0.01 0.02 0.04 0.06 0.07 0.08 0.09 0.11 0.13 0.13 0.11 0.08 0.05 0.04 0.05 0.05 0.05 0.03 0.04 0.06 0.05 0.05 0.05 0.06 0.06 0.06
0.00 0.00 0.00 0.00 0.00 0.00 0.00 0.00 0.00 0.00 0.00 0.00 0.00 0.00 0.00 0.01 0.01 0.02 0.04 0.05 0.07 0.08 0.08 0.11 0.13 0.15 0.17 0.14 0.11 0.09 0.07 0.07 0.07 0.07 0.06 0.06 0.07 0.09 0.08 0.07 0.07 0.06 0.06
0.00 0.00 0.00 0.00 0.00 0.00 0.00 0.00 0.00 0.00 0.00 0.00 0.00 0.00 0.01 0.03 0.03 0.04 0.06 0.07 0.09 0.08 0.09 0.10 0.13 0.17 0.19 0.18 0.15 0.12 0.11 0.11 0.10 0.08 0.07 0.08 0.08 0.10 0.11 0.10 0.08 0.07 0.07
0.00 0.00 0.00 0.00 0.00 0.00 0.00 0.01 0.01 0.01 0.01 0.01 0.01 0.02 0.03 0.05 0.05 0.07 0.09 0.09 0.09 0.10 0.11 0.11 0.12 0.16 0.21 0.23 0.17 0.14 0.13 0.15 0.12 0.09 0.07 0.07 0.09 0.09 0.10 0.12 0.10 0.08 0.07
0.00 0.00 0.00 0.00 0.00 0.00 0.01 0.02 0.02 0.02 0.02 0.02 0.03 0.03 0.04 0.04 0.03 0.07 0.09 0.09 0.11 0.11 0.11 0.13 0.15 0.19 0.23 0.24 0.21 0.18 0.15 0.16 0.15 0.11 0.07 0.08 0.09 0.08 0.08 0.09 0.12 0.09 0.06
0.00 0.00 0.00 0.00 0.01 0.01 0.01 0.02 0.02 0.02 0.03 0.03 0.04 0.04 0.05 0.06 0.07 0.08 0.09 0.10 0.12 0.12 0.13 0.16 0.19 0.24 0.30 0.29 0.24 0.23 0.21 0.18 0.16 0.13 0.09 0.08 0.09 0.07 0.07 0.07 0.08 0.07 0.05
0.00 0.00 0.00 0.01 0.01 0.01 0.01 0.02 0.02 0.02 0.03 0.04 0.04 0.05 0.06 0.06 0.07 0.10 0.10 0.11 0.12 0.14 0.16 0.17 0.20 0.25 0.33 0.37 0.28 0.24 0.23 0.21 0.16 0.12 0.08 0.06 0.07 0.06 0.06 0.05 0.05 0.04 0.04
0.00 0.01 0.01 0.02 0.01 0.01 0.01 0.02 0.02 0.03 0.05 0.05 0.05 0.05 0.06 0.07 0.08 0.09 0.10 0.10 0.12 0.12 0.11 0.14 0.19 0.24 0.31 0.36 0.33 0.27 0.22 0.19 0.16 0.10 0.06 0.04 0.03 0.03 0.03 0.03 0.03 0.03 0.03
0.01 0.01 0.02 0.02 0.02 0.02 0.02 0.02 0.03 0.05 0.06 0.06 0.06 0.06 0.06 0.07 0.08 0.08 0.08 0.08 0.05 0.03 0.02 0.06 0.12 0.19 0.26 0.33 0.34 0.30 0.25 0.19 0.15 0.10 0.06 0.04 0.03 0.02 0.02 0.02 0.02 0.02 0.02
MSLP
1002.09 1002.35 1002.69 1003.12 1003.62 1004.17 1004.78 1005.41 1006.04 1006.64 1007.19 1007.64 1008.00 1008.26 1008.45 1008.59 1008.72 1008.87 1009.07 1009.31 1009.59 1009.88 1010.14 1010.34 1010.46 1010.49 1010.45 1010.36 1010.24 1010.14 1010.08 1010.06 1010.07 1010.08 1010.06 1009.97 1009.80 1009.52 1009.16 1008.75 1008.35 1008.00 1007.75
1002.42 1002.70 1003.06 1003.46 1003.91 1004.39 1004.91 1005.46 1006.02 1006.57 1007.08 1007.53 1007.89 1008.16 1008.35 1008.48 1008.58 1008.70 1008.85 1009.06 1009.32 1009.60 1009.88 1010.12 1010.29 1010.37 1010.38 1010.31 1010.22 1010.11 1010.02 1009.97 1009.94 1009.91 1009.85 1009.73 1009.52 1009.21 1008.82 1008.38 1007.94 1007.55 1007.26
1003.05 1003.35 1003.70 1004.07 1004.45 1004.83 1005.23 1005.65 1006.09 1006.55 1006.99 1007.39 1007.73 1007.99 1008.17 1008.29 1008.37 1008.46 1008.58 1008.76 1008.99 1009.28 1009.57 1009.84 1010.06 1010.20 1010.25 1010.22 1010.14 1010.04 1009.94 1009.85 1009.78 1009.72 1009.62 1009.47 1009.24 1008.92 1008.52 1008.07 1007.61 1007.20 1006.88
1003.93 1004.26 1004.61 1004.93 1005.22 1005.48 1005.74 1006.01 1006.31 1006.64 1006.98 1007.31 1007.60 1007.84 1008.00 1008.10 1008.17 1008.23 1008.32 1008.47 1008.69 1008.96 1009.26 1009.55 1009.80 1009.98 1010.07 1010.08 1010.03 1009.93 1009.82 1009.72 1009.62 1009.53 1009.41 1009.24 1009.01 1008.70 1008.30 1007.86 1007.40 1006.98 1006.63
1005.02 1005.37 1005.70 1005.97 1006.18 1006.32 1006.43 1006.55 1006.70 1006.89 1007.12 1007.36 1007.60 1007.79 1007.93 1008.01 1008.06 1008.09 1008.15 1008.27 1008.45 1008.69 1008.98 1009.27 1009.53 1009.74 1009.86 1009.90 1009.86 1009.78 1009.67 1009.56 1009.45 1009.34 1009.22 1009.05 1008.83 1008.53 1008.16 1007.74 1007.29 1006.87 1006.50
1006.23 1006.58 1006.89 1007.12 1007.25 1007.29 1007.28 1007.26 1007.27 1007.33 1007.45 1007.61 1007.78 1007.93 1008.03 1008.09 1008.10 1008.10 1008.12 1008.18 1008.30 1008.49 1008.73 1009.00 1009.25 1009.45 1009.58 1009.63 1009.62 1009.55 1009.45 1009.35 1009.24 1009.14 1009.02 1008.87 1008.67 1008.39 1008.05 1007.65 1007.22 1006.80 1006.41
1007.46 1007.80 1008.09 1008.28 1008.35 1008.31 1008.21 1008.09 1007.99 1007.96 1007.99 1008.07 1008.17 1008.26 1008.33 1008.34 1008.31 1008.26 1008.21 1008.20 1008.24 1008.36 1008.52 1008.72 1008.92 1009.10 1009.22 1009.27 1009.27 1009.22 1009.14 1009.05 1008.96 1008.87 1008.77 1008.63 1008.45 1008.20 1007.88 1007.51 1007.10 1006.68 1006.29
1008.61 1008.93 1009.19 1009.35 1009.39 1009.31 1009.15 1008.97 1008.81 1008.70 1008.66 1008.67 1008.72 1008.76 1008.76 1008.72 1008.63 1008.51 1008.38 1008.28 1008.22 1008.23 1008.30 1008.41 1008.54 1008.66 1008.75 1008.80 1008.80 1008.77 1008.71 1008.64 1008.57 1008.49 1008.40 1008.28 1008.10 1007.87 1007.56 1007.21 1006.82 1006.42 1006.04
1009.60 1009.89 1010.12 1010.26 1010.28 1010.18 1010.01 1009.81 1009.62 1009.47 1009.38 1009.34 1009.32 1009.30 1009.25 1009.14 1008.97 1008.77 1008.55 1008.34 1008.18 1008.08 1008.03 1008.04 1008.09 1008.15 1008.20 1008.22 1008.22 1008.20 1008.16 1008.11 1008.05 1007.98 1007.89 1007.76 1007.57 1007.33 1007.03 1006.67 1006.30 1005.93 1005.59
1010.37 1010.61 1010.81 1010.93 1010.94 1010.86 1010.70 1010.50 1010.31 1010.15 1010.03 1009.94 1009.87 1009.78 1009.65 1009.47 1009.22 1008.93 1008.63 1008.32 1008.06 1007.85 1007.70 1007.61 1007.58 1007.57 1007.58 1007.58 1007.58 1007.56 1007.53 1007.49 1007.43 1007.34 1007.23 1007.06 1006.84 1006.57 1006.24 1005.88 1005.52 1005.18 1004.90
1010.88 1011.07 1011.23 1011.33 1011.35 1011.28 1011.14 1010.97 1010.79 1010.62 1010.48 1010.35 1010.22 1010.06 1009.86 1009.60 1009.29 1008.92 1008.54 1008.16 1007.82 1007.53 1007.30 1007.14 1007.04 1006.98 1006.95 1006.93 1006.92 1006.90 1006.87 1006.82 1006.75 1006.63 1006.46 1006.24 1005.96 1005.62 1005.25 1004.87 1004.51 1004.20 1003.99
1011.16 1011.28 1011.39 1011.46 1011.48 1011.43 1011.32 1011.17 1011.01 1010.84 1010.67 1010.49 1010.31 1010.08 1009.82 1009.49 1009.12 1008.71 1008.28 1007.86 1007.47 1007.13 1006.86 1006.65 1006.51 1006.42 1006.37 1006.34 1006.32 1006.30 1006.26 1006.19 1006.08 1005.92 1005.68 1005.38 1005.02 1004.60 1004.16 1003.74 1003.37 1003.10 1002.95
1011.23 1011.27 1011.33 1011.36 1011.37 1011.32 1011.24 1011.11 1010.95 1010.77 1010.58 1010.36 1010.12 1009.84 1009.51 1009.15 1008.74 1008.31 1007.86 1007.44 1007.04 1006.70 1006.41 1006.20 1006.04 1005.93 1005.87 1005.83 1005.81 1005.78 1005.73 1005.65 1005.50 1005.28 1004.97 1004.59 1004.13 1003.63 1003.12 1002.64 1002.26 1002.00 1001.92
1011.13 1011.10 1011.09 1011.08 1011.07 1011.02 1010.93 1010.81 1010.65 1010.46 1010.24 1009.98 1009.69 1009.37 1009.01 1008.62 1008.21 1007.78 1007.36 1006.96 1006.59 1006.27 1006.00 1005.79 1005.64 1005.53 1005.46 1005.42 1005.40 1005.37 1005.31 1005.20 1005.03 1004.76 1004.40 1003.94 1003.41 1002.82 1002.25 1001.72 1001.32 1001.07 1001.03
1010.92 1010.81 1010.73 1010.68 1010.62 1010.56 1010.46 1010.33 1010.17 1009.96 1009.71 1009.43 1009.11 1008.76 1008.39 1008.00 1007.61 1007.21 1006.84 1006.48 1006.16 1005.88 1005.64 1005.44 1005.29 1005.18 1005.11 1005.07 1005.04 1005.02 1004.96 1004.86 1004.67 1004.39 1004.00 1003.51 1002.92 1002.29 1001.67 1001.11 1000.68 1000.44 1000.42
1010.62 1010.44 1010.29 1010.18 1010.09 1010.00 1009.89 1009.75 1009.57 1009.35 1009.08 1008.78 1008.45 1008.10 1007.74 1007.37 1007.02 1006.67 1006.35 1006.05 1005.78 1005.53 1005.31 1005.12 1004.97 1004.85 1004.77 1004.72 1004.69 1004.68 1004.64 1004.56 1004.40 1004.15 1003.78 1003.29 1002.71 1002.08 1001.44 1000.88 1000.44 1000.20 1000.19
1010.26 1010.00 1009.80 1009.64 1009.50 1009.38 1009.25 1009.10 1008.91 1008.68 1008.42 1008.12 1007.79 1007.46 1007.12 1006.80 1006.49 1006.20 1005.93 1005.67 1005.43 1005.21 1004.99 1004.79 1004.62 1004.48 1004.37 1004.31 1004.29 1004.29 1004.29 1004.26 1004.17 1003.99 1003.69 1003.27 1002.76 1002.17 1001.58 1001.03 1000.61 1000.37 1000.35
1009.83 1009.52 1009.26 1009.05 1008.88 1008.72 1008.57 1008.41 1008.22 1008.00 1007.75 1007.47 1007.17 1006.87 1006.57 1006.29 1006.03 1005.78 1005.55 1005.33 1005.10 1004.87 1004.64 1004.42 1004.20 1004.02 1003.89 1003.81 1003.79 1003.82 1003.87 1003.92 1003.93 1003.86 1003.69 1003.40 1003.01 1002.53 1002.02 1001.53 1001.15 1000.92 1000.89
1009.33 1008.97 1008.67 1008.42 1008.22 1008.04 1007.88 1007.71 1007.53 1007.32 1007.09 1006.84 1006.58 1006.31 1006.06 1005.82 1005.60 1005.39 1005.18 1004.97 1004.74 1004.49 1004.23 1003.96 1003.70 1003.48 1003.31 1003.22 1003.21 1003.27 1003.39 1003.54 1003.67 1003.75 1003.74 1003.61 1003.38 1003.05 1002.66 1002.28 1001.96 1001.75 1001.72
1008.76 1008.38 1008.05 1007.77 1007.54 1007.35 1007.17 1007.01 1006.83 1006.65 1006.44 1006.22 1005.99 1005.76 1005.54 1005.34 1005.14 1004.95 1004.76 1004.54 1004.31 1004.04 1003.74 1003.44 1003.14 1002.89 1002.69 1002.59 1002.59 1002.70 1002.89 1003.13 1003.39 1003.62 1003.78 1003.84 1003.79 1003.63 1003.39 1003.13 1002.89 1002.73 1002.70
1008.16 1007.76 1007.40 1007.11 1006.86 1006.65 1006.47 1006.31 1006.15 1005.97 1005.79 1005.59 1005.39 1005.18 1004.99 1004.80 1004.61 1004.43 1004.24 1004.02 1003.77 1003.49 1003.19 1002.87 1002.56 1002.29 1002.09 1002.00 1002.02 1002.16 1002.42 1002.75 1003.13 1003.49 1003.81 1004.04 1004.16 1004.18 1004.10 1003.96 1003.82 1003.72 1003.69
1007.56 1007.15 1006.78 1006.47 1006.21 1005.99 1005.81 1005.64 1005.48 1005.31 1005.14 1004.95 1004.75 1004.55 1004.36 1004.16 1003.98 1003.79 1003.60 1003.38 1003.15 1002.88 1002.59 1002.29 1002.00 1001.75 1001.58 1001.51 1001.57 1001.75 1002.05 1002.45 1002.90 1003.37 1003.81 1004.18 1004.45 1004.62 1004.68 1004.67 1004.62 1004.58 1004.58
1007.01 1006.59 1006.22 1005.90 1005.63 1005.40 1005.21 1005.03 1004.87 1004.69 1004.51 1004.31 1004.10 1003.88 1003.66 1003.45 1003.24 1003.05 1002.85 1002.65 1002.44 1002.22 1001.98 1001.74 1001.51 1001.33 1001.21 1001.19 1001.27 1001.48 1001.81 1002.24 1002.73 1003.26 1003.76 1004.22 1004.60 1004.88 1005.06 1005.16 1005.21 1005.23 1005.27
1006.56 1006.15 1005.77 1005.44 1005.16 1004.91 1004.71 1004.52 1004.33 1004.14 1003.93 1003.70 1003.45 1003.19 1002.93 1002.68 1002.44 1002.23 1002.03 1001.86 1001.70 1001.54 1001.39 1001.25 1001.12 1001.03 1000.99 1001.02 1001.15 1001.38 1001.71 1002.13 1002.61 1003.14 1003.66 1004.16 1004.59 1004.94 1005.21 1005.40 1005.53 1005.62 1005.71
1006.24 1005.82 1005.43 1005.09 1004.79 1004.53 1004.30 1004.09 1003.89 1003.66 1003.41 1003.14 1002.84 1002.52 1002.20 1001.90 1001.62 1001.39 1001.20 1001.06 1000.96 1000.89 1000.85 1000.82 1000.82 1000.84 1000.89 1000.99 1001.15 1001.38 1001.69 1002.07 1002.51 1002.99 1003.48 1003.96 1004.41 1004.80 1005.12 1005.38 1005.58 1005.75 1005.88
1006.04 1005.60 1005.19 1004.82 1004.50 1004.22 1003.97 1003.74 1003.51 1003.26 1002.97 1002.65 1002.29 1001.91 1001.53 1001.17 1000.86 1000.60 1000.42 1000.31 1000.27 1000.29 1000.36 1000.46 1000.58 1000.71 1000.86 1001.02 1001.21 1001.43 1001.69 1002.01 1002.37 1002.78 1003.20 1003.64 1004.07 1004.47 1004.83 1005.15 1005.41 1005.64 1005.84
Thickness
5819 5818 5816 5811 5807 5804 5802 5799 5794 5790 5785 5780 5775 5770 5768 5768 5768 5767 5764 5760 5756 5753 5750 5748 5746 5745 5743 5741 5740 5739 5737 5736 5736 5732 5732 5736 5740 5741 5742 5743 5742 5743 5745
5804 5804 5803 5799 5794 5792 5789 5785 5783 5780 5777 5772 5769 5766 5764 5763 5763 5761 5758 5755 5751 5748 5746 5743 5740 5739 5736 5736 5735 5734 5731 5731 5732 5726 5723 5724 5730 5736 5742 5741 5740 5740 5742
5790 5786 5784 5782 5782 5781 5778 5776 5773 5770 5767 5765 5763 5760 5756 5754 5752 5751 5749 5749 5746 5743 5740 5738 5736 5734 5731 5730 5729 5728 5726 5724 5725 5725 5719 5715 5717 5724 5732 5735 5736 5737 5737
5775 5773 5767 5767 5770 5770 5768 5766 5763 5761 5758 5756 5751 5747 5743 5740 5742 5742 5742 5741 5740 5738 5736 5734 5732 5729 5727 5725 5724 5725 5721 5719 5718 5719 5720 5718 5717 5712 5716 5724 5728 5731 5731
5762 5758 5756 5757 5758 5759 5757 5755 5752 5748 5747 5745 5742 5738 5734 5733 5734 5734 5732 5731 5732 5731 5731 5729 5727 5724 5722 5721 5719 5717 5716 5714 5712 5712 5712 5712 5712 5711 5706 5709 5715 5720 5725
5752 5750 5749 5747 5746 5746 5744 5741 5736 5732 5732 5731 5730 5727 5723 5722 5721 5720 5720 5720 5722 5723 5724 5723 5721 5718 5716 5715 5713 5712 5710 5709 5709 5708 5707 5706 5704 5704 5703 5703 5706 5708 5714
5744 5740 5737 5734 5732 5730 5728 5725 5721 5717 5717 5717 5715 5714 5712 5711 5710 5710 5709 5709 5710 5712 5714 5714 5713 5711 5710 5708 5707 5706 5705 5704 5704 5703 5703 5703 5702 5702 5700 5698 5699 5701 5706
5737 5731 5727 5724 5720 5718 5715 5712 5708 5705 5703 5703 5701 5701 5701 5700 5699 5699 5698 5699 5700 5702 5704 5703 5704 5704 5703 5702 5701 5700 5700 5700 5700 5700 5699 5699 5699 5699 5698 5695 5693 5692 5696
5727 5722 5718 5714 5710 5706 5702 5700 5696 5693 5691 5690 5689 5689 5688 5686 5686 5686 5687 5689 5690 5692 5694 5694 5694 5694 5694 5694 5693 5693 5693 5694 5694 5694 5695 5695 5696 5696 5695 5694 5691 5686 5685
5717 5712 5708 5704 5699 5696 5691 5688 5684 5680 5678 5676 5675 5675 5673 5673 5673 5673 5674 5675 5677 5679 5681 5682 5683 5684 5685 5686 5686 5686 5687 5688 5688 5689 5689 5690 5691 5692 5691 5690 5689 5687 5685
5705 5701 5697 5693 5689 5685 5679 5675 5671 5667 5664 5662 5660 5659 5659 5659 5659 5659 5660 5662 5664 5666 5668 5670 5672 5674 5676 5677 5678 5679 5680 5681 5682 5683 5684 5685 5685 5685 5685 5685 5685 5684 5682
5694 5689 5685 5680 5674 5669 5664 5660 5656 5652 5649 5648 5646 5644 5644 5644 5644 5644 5645 5647 5649 5652 5655 5658 5660 5663 5666 5668 5669 5670 5672 5673 5674 5676 5677 5678 5679 5679 5679 5679 5679 5679 5678
5681 5676 5670 5664 5658 5653 5649 5645 5641 5638 5636 5633 5631 5630 5628 5627 5628 5629 5630 5632 5633 5636 5640 5644 5647 5651 5654 5657 5660 5662 5664 5665 5667 5669 5670 5671 5672 5672 5673 5673 5673 5673 5673
5668 5663 5657 5650 5645 5640 5635 5631 5628 5625 5621 5617 5614 5612 5611 5610 5611 5612 5613 5614 5617 5620 5623 5628 5633 5637 5642 5646 5649 5651 5654 5656 5658 5660 5662 5664 5664 5665 5666 5666 5667 5667 5666
5658 5652 5644 5637 5632 5627 5622 5617 5612 5608 5603 5598 5595 5593 5592 5592 5592 5592 5594 5596 5599 5602 5606 5610 5615 5621 5627 5633 5637 5639 5643 5646 5648 5651 5654 5655 5657 5658 5659 5660 5660 5660 5659
5643 5636 5628 5622 5616 5610 5604 5598 5593 5588 5583 5578 5575 5573 5572 5571 5571 5572 5574 5576 5579 5582 5585 5590 5596 5603 5610 5616 5620 5625 5630 5635 5638 5641 5644 5646 5648 5650 5652 5653 5655 5655 5654
5626 5618 5611 5604 5598 5592 5585 5579 5574 5569 5564 5560 5558 5556 5555 5554 5555 5556 5557 5558 5559 5562 5566 5571 5576 5583 5591 5597 5603 5610 5617 5623 5627 5631 5634 5638 5641 5642 5644 5646 5647 5648 5649
5611 5604 5596 5590 5584 5577 5570 5564 5559 5554 5550 5547 5546 5545 5543 5543 5544 5545 5545 5545 5545 5547 5550 5554 5560 5566 5574 5581 5587 5594 5603 5610 5616 5620 5624 5628 5630 5634 5636 5638 5639 5640 5641
5600 5592 5585 5578 5571 5564 5558 5552 5548 5544 5541 5539 5538 5537 5536 5536 5536 5536 5536 5536 5536 5537 5539 5543 5549 5554 5560 5566 5572 5578 5589 5597 5603 5610 5614 5618 5621 5624 5628 5630 5630 5630 5630
5587 5580 5573 5566 5559 5554 5549 5543 5540 5537 5534 5533 5532 5532 5531 5530 5529 5529 5530 5530 5530 5531 5532 5536 5540 5545 5550 5555 5560 5566 5576 5584 5591 5597 5603 5607 5611 5614 5618 5621 5622 5621 5621
5577 5569 5562 5555 5550 5545 5540 5536 5533 5531 5529 5529 5528 5527 5526 5525 5525 5526 5526 5525 5525 5526 5527 5530 5534 5538 5543 5547 5551 5556 5565 5574 5581 5587 5592 5596 5599 5603 5607 5611 5613 5613 5614
5566 5559 5551 5546 5542 5537 5532 5529 5527 5526 5524 5523 5522 5521 5521 5520 5522 5521 5521 5521 5520 5521 5523 5525 5529 5534 5537 5540 5545 5549 5554 5563 5571 5578 5583 5585 5588 5593 5598 5601 5602 5604 5606
5557 5550 5544 5539 5535 5530 5525 5522 5521 5519 5517 5516 5515 5514 5514 5514 5514 5514 5515 5516 5517 5518 5520 5522 5525 5528 5531 5534 5537 5541 5546 5554 5561 5569 5574 5576 5578 5583 5587 5590 5592 5595 5597
5548 5542 5536 5530 5526 5521 5517 5514 5513 5511 5509 5508 5508 5508 5508 5509 5509 5510 5511 5512 5514 5515 5516 5517 5520 5523 5526 5527 5530 5534 5539 5545 5553 5560 5563 5566 5571 5576 5578 5580 5583 5587 5591
5540 5533 5526 5521 5517 5514 5510 5507 5504 5502 5500 5500 5500 5501 5502 5503 5504 5506 5508 5509 5511 5512 5512 5514 5517 5519 5521 5522 5524 5530 5535 5540 5547 5553 5557 5561 5565 5569 5572 5575 5579 5583 5587
5531 5524 5518 5513 5510 5506 5503 5500 5497 5494 5493 5493 5493 5493 5495 5497 5500 5502 5505 5507 5507 5509 5509 5510 5512 5515 5515 5515 5519 5524 5530 5535 5540 5548 5554 5558 5563 5567 5570 5573 5576 5580 5584